Location: Bodorna
(42.0542°N, 44.7426°E)
Time: 11:17:25
(UTC+00:00)

Daily predictions for brighter satellites

Satellite Brightness Start Highest point End
(mag) Time Altitude Azimuth Time Altitude Azimuth Time Altitude Azimuth
NOSS 3-1 (A) 3.4 16:09:16 10° S 16:13:39 38° ESE 16:18:43 10° NE
Okean O Rocket 2.7 16:11:07 10° SE 16:14:48 27° ENE 16:18:30 10° N
USA 186 2.5 16:14:37 10° SE 16:17:21 31° ENE 16:20:04 10° N
Cosmos 1782 Rocket 3.5 16:14:02 10° S 16:18:24 84° E 16:22:50 10° N
Cosmos 1825 2.8 16:16:01 10° NNW 16:19:23 52° W 16:22:43 10° S
SL-27 R/B 3.0 16:18:56 10° N 16:21:31 28° ENE 16:24:03 10° SE
BREEZE-M (TANK) 4.3 16:19:10 10° NW 16:22:58 51° NNE 16:36:17 10° E
CZ-4 R/B 1.2 16:19:13 10° SSE 16:23:08 77° ENE 16:27:00 10° N
Resurs 01 Rocket 2.2 16:25:05 10° SE 16:29:11 40° ENE 16:33:20 10° N
USA 234 3.6 16:24:11 10° ESE 16:30:35 59° NE 16:36:59 10° NW
SJ 16-02 2.0 16:26:29 10° NNW 16:30:43 55° WSW 16:34:55 10° S
USA 281 4.0 16:25:35 10° ESE 16:31:27 36° NE 16:37:20 10° N
CZ-4B R/B 3.8 16:29:00 10° S 16:32:32 45° W 16:35:58 10° NNW
NOSS 3-1 (C) 3.5 16:29:13 10° SW 16:34:01 66° NW 16:39:45 10° NNE
DELTA 2 DEB (DPAF) 4.1 16:30:25 10° NNE 16:34:36 55° ESE 16:38:44 10° S
Cosmos 1300 Rocket 3.7 16:32:41 10° SSW 16:37:02 78° W 16:41:28 10° N
Cosmos 2227 Rocket 4.3 16:43:04 10° NNE 16:45:13 12° NE 16:47:21 10° ENE
Cosmos 2151 Rocket 4.3 16:42:08 10° SSE 16:46:01 32° E 16:49:58 10° NNE
ATLAS 3B R/B 2.8 16:40:26 10° SSW 16:47:24 81° ESE 16:54:57 10° NE
CSL-04 Debris 4.2 16:42:13 10° SSE 16:47:38 74° ENE 16:53:06 10° N
Tiangong -1.4 16:49:08 10° SW 16:51:57 33° SSE 16:53:10 24° ESE
Cosmos 1697 Rocket 4.5 16:55:45 12° E 16:55:45 12° E 16:57:08 10° ENE
CSL-04 Rocket 3.7 16:50:38 10° SSE 16:56:09 80° ENE 17:01:38 10° NNW
COSMOS 2455 4.3 16:53:22 10° N 16:58:03 23° NE 17:01:42 14° E
Cosmos 371 Rocket 3.8 16:56:49 10° N 17:01:21 40° ENE 17:03:55 22° ESE
MOS 1-B 4.5 16:57:43 10° S 17:03:31 78° WSW 17:09:21 10° NNW
SL-4 R/B 4.0 17:02:48 10° NW 17:05:23 18° N 17:07:54 10° NE
Cosmos 304 Rocket 4.5 17:01:07 10° N 17:05:31 36° ENE 17:07:41 24° ESE
CZ-4C R/B 4.3 17:01:02 10° NNW 17:06:42 26° NE 17:12:25 13° E
Okean 2 Rocket 3.2 17:03:40 10° S 17:08:02 53° E 17:12:25 10° NNE
SPOT 5 3.8 17:07:46 22° ESE 17:10:26 36° ENE 17:15:13 10° N
Iridium 2 4.3 17:08:08 10° NNE 17:10:19 25° ENE 17:10:19 25° ENE
BREEZE-M R/B 3.8 17:11:53 10° NW 17:13:53 20° NNE 17:14:47 17° NE
Cosmos 2297 Rocket 3.2 17:09:28 10° N 17:14:30 32° NE 17:16:58 23° E
Cosmos 1656 3.7 17:12:38 10° S 17:18:03 53° ESE 17:23:25 10° NNE
Cosmos 1503 Rocket 4.1 17:14:39 10° NNW 17:20:01 67° ENE 17:22:57 27° SE
Cosmos 1241 Rocket 4.4 17:14:45 10° NNW 17:21:05 88° ENE 17:25:08 24° SSE
Cosmos 1354 Rocket 4.2 17:17:37 10° N 17:22:51 54° ENE 17:25:12 31° SE
Terra 3.0 17:22:44 23° E 17:23:37 24° ENE 17:27:24 10° NNE
ATLAS 5 CENTAUR R/B 3.8 17:22:03 10° W 17:24:37 20° NW 17:27:24 10° N
BlueWalker 3 2.2 17:23:25 10° WSW 17:27:12 66° NW 17:31:02 10° NE
Iridium 4 Rocket 3.9 17:24:48 26° SSE 17:27:40 52° E 17:33:16 10° NNE
CARTOSAT-1 4.3 17:25:40 12° S 17:29:30 49° W 17:33:40 10° NNW
Sich 1 Rocket 3.6 17:27:05 10° S 17:31:28 83° W 17:35:57 10° N
Okean 1 Rocket 3.1 17:29:54 32° SSE 17:31:44 59° E 17:36:08 10° NNE
Cosmos 1932 4.4 17:27:37 10° NNW 17:33:54 90° NE 17:37:05 31° SSE
Okean-O 2.6 17:33:41 29° S 17:35:54 81° WSW 17:40:20 10° NNW
Nadezhda 3 Rocket 4.4 17:29:57 10° SSW 17:36:01 63° W 17:42:10 10° N
Ariane Rocket 3.9 17:36:14 29° E 17:37:09 32° ENE 17:41:34 10° N
Cosmos 1763 Rocket 3.9 17:38:02 38° ESE 17:38:11 38° ESE 17:42:53 10° NE
Cosmos 2263 Rocket 4.3 17:38:36 10° NNE 17:40:48 12° NE 17:42:45 10° ENE
Cosmos 44 3.4 17:40:37 10° SSW 17:46:00 75° ESE 17:51:22 10° NE
CZ-4C R/B 4.0 17:44:22 10° N 17:47:38 45° WNW 17:49:50 18° SW
Cosmos 1605 Rocket 4.2 17:41:26 10° N 17:47:43 55° ENE 17:49:48 39° SE
Okean O Rocket 3.5 17:47:18 10° SSW 17:51:00 27° W 17:54:45 10° NW
Cosmos 1437 Rocket 4.2 17:48:05 10° NNE 17:50:37 26° NE 17:50:37 26° NE
Genesis I 3.0 17:49:39 10° NNW 17:53:07 79° N 17:53:07 79° N
Atlas Centaur 2 3.6 17:53:10 10° SW 17:55:03 16° SSW 17:55:03 16° SSW
Cosmos 540 Rocket 4.1 17:59:23 36° ENE 17:59:23 36° ENE 18:03:05 10° NNE
IRS-P2 Rocket 4.5 18:00:43 54° SSE 18:01:56 78° ENE 18:07:15 10° NNW
IRS-1C Rocket 4.1 18:01:39 42° S 18:03:28 76° WSW 18:08:46 10° NNW
Resurs 01 Rocket 4.0 18:02:39 10° SW 18:05:47 19° W 18:08:56 10° NW
CENTAUR R/B 4.2 17:58:42 10° NNW 18:05:59 34° NE 18:10:31 22° E
MOS 1 Rocket 4.4 18:07:00 27° NE 18:07:00 27° NE 18:09:56 10° N
Celestis-02/Orion 38 4.5 18:07:18 56° S 18:08:21 79° WSW 18:13:28 10° NNW
Cosmos 468 Rocket 4.5 18:11:30 44° ENE 18:11:30 44° ENE 18:15:29 10° NNE
ERS-1 Rocket 2.8 18:11:31 69° SSE 18:12:07 85° ENE 18:17:09 10° NNW
USA 229 DEB 3.6 18:06:41 10° SW 18:12:45 78° NW 18:19:27 10° NNE
USA 229 3.5 18:06:46 10° SW 18:12:51 79° NW 18:19:33 10° NE
USA 234 3.9 18:11:15 31° S 18:13:42 43° SW 18:19:53 10° WNW
SPOT 3 Rocket 3.5 18:14:33 61° E 18:14:49 62° ENE 18:19:57 10° N
USA 281 3.9 18:12:10 25° SSW 18:15:46 47° WSW 18:22:05 10° NW
Cosmos 1727 Rocket 4.0 18:19:45 55° ESE 18:20:08 56° E 18:26:13 10° NNE
Cosmos 1980 Rocket 3.7 18:31:52 24° NE 18:31:52 24° NE 18:34:18 10° NE
Cosmos 2227 Rocket 2.2 18:24:45 10° NNW 18:30:25 65° ENE 18:30:32 65° ENE
ATLAS CENTAUR R/B 3.1 18:32:49 10° NNW 18:34:52 24° N 18:34:52 24° N
Cosmos 1697 Rocket 2.6 18:37:21 75° SW 18:37:52 86° WNW 18:43:35 10° NNE
Cosmos 1892 Rocket 4.3 18:37:37 10° NNW 18:41:02 49° NW 18:41:02 49° NW
Cosmos 1937 Rocket 4.5 18:39:19 10° N 18:43:32 37° NE 18:43:32 37° NE
COSMOS 2455 2.8 18:38:34 10° NNW 18:44:36 75° WSW 18:44:51 74° SW
SL-4 R/B 4.0 18:41:34 10° NW 18:43:07 22° NNW 18:43:07 22° NNW
Spot 2 Rocket 4.2 18:56:17 48° W 18:56:17 48° W 19:00:58 10° NNW
CZ-4C R/B 3.0 18:48:46 10° NW 18:56:10 82° NE 18:57:31 66° SE
Cosmos 1898 Rocket 4.0 18:51:38 10° NNW 18:55:50 54° N 18:55:50 54° N
USA 81 4.3 18:58:09 65° NW 18:58:09 65° NW 19:02:48 10° N
Cosmos 2297 Rocket 3.1 18:53:22 10° NW 18:58:35 39° WSW 18:58:46 39° WSW
Meteor 2-13 Rocket 4.4 18:59:00 79° NE 18:59:00 79° NE 19:04:49 10° N
Terra 3.0 19:01:26 36° W 19:01:26 36° W 19:05:23 10° NNW
BlueWalker 3 4.5 19:03:10 10° WNW 19:06:02 20° NNW 19:06:07 20° NNW
Cosmos 1459 Rocket 4.0 19:02:10 10° N 19:07:34 69° NNE 19:07:34 69° NNE
Cosmos 2219 3.6 19:08:02 10° NNW 19:12:38 59° N 19:12:38 59° N
Ariane Rocket 4.4 19:16:22 31° W 19:16:22 31° W 19:20:29 10° NW
Cosmos 2263 Rocket 2.9 19:20:14 10° NNW 19:24:25 49° N 19:24:25 49° N
NOSS 3-2 (A) 4.3 19:24:24 10° NNW 19:31:50 61° NE 19:32:37 58° ENE
Cosmos 2082 4.4 19:26:29 10° NNW 19:30:38 49° N 19:30:38 49° N
Cosmos 2173 Rocket 4.3 19:26:39 10° NNW 19:32:25 63° WNW 19:32:25 63° WNW
Meteor 2-3 Rocket 4.4 19:33:09 10° NNW 19:37:24 51° NNW 19:37:24 51° NNW
SL-16 R/B 4.1 19:59:19 20° NE 19:59:19 20° NE 20:01:09 10° NE
CENTAUR R/B 3.2 19:49:04 10° NW 19:57:36 81° WSW 19:57:39 81° SW
Cosmos 1844 Rocket 4.2 20:05:17 10° N 20:08:52 29° NNE 20:08:52 29° NNE
Cosmos 1980 Rocket 3.6 20:13:32 32° NW 20:13:32 32° NW 20:18:13 10° N
Cosmos 2227 Rocket 4.4 20:10:11 10° WNW 20:12:21 16° W 20:12:21 16° W
NOSS 3-2 (C) 4.2 20:40:19 10° NW 20:47:08 74° NNW 20:47:08 74° NNW
Cosmos 2360 Rocket 3.7 21:09:23 31° NNE 21:09:23 31° NNE 21:12:13 10° NNE
Cosmos 2333 Rocket 3.6 21:21:48 33° NNE 21:21:48 33° NNE 21:24:50 10° NNE
Cosmos 2322 Rocket 3.6 21:22:13 34° N 21:22:13 34° N 21:25:28 10° NNE
Cosmos 2219 Rocket 3.8 21:24:01 28° NE 21:24:01 28° NE 21:26:39 10° NNE
Lacrosse 5 4.0 21:26:47 24° NNE 21:26:47 24° NNE 21:28:56 10° NE
SL-16 R/B 3.9 21:41:08 26° NW 21:41:08 26° NW 21:44:54 10° N
USA 238 DEB 4.4 21:40:11 10° NW 21:45:34 51° NW 21:45:34 51° NW
USA 238 4.4 21:40:17 10° NW 21:45:41 52° NW 21:45:41 52° NW
IDEFIX/ARIANE 42P 4.4 21:56:09 10° NE 21:59:03 24° ENE 21:59:03 24° ENE
Resurs 1-4 Rocket 4.1 21:56:29 10° NE 21:59:26 21° ENE 21:59:26 21° ENE
USA 215 3.4 22:04:28 10° NE 22:10:13 70° NNE 22:10:13 70° NNE
CZ-2C R/B 4.4 22:13:11 24° E 22:14:09 26° ENE 22:18:30 10° N
NOSS 3-4 (A) 4.4 22:25:04 36° NNW 22:25:04 36° NNW 22:30:03 10° NNE
NOSS 3-4 (C) 4.4 22:25:07 36° NNW 22:25:07 36° NNW 22:30:07 10° NNE
Cosmos 2279 Rocket 4.3 22:22:30 10° N 22:27:36 62° N 22:27:36 62° N
Cosmos 2237 Rocket 3.3 22:34:53 38° E 22:34:53 38° E 22:39:18 10° NE
ADEOS II 3.6 22:31:00 10° NE 22:35:12 29° E 22:35:12 29° E
COSMOS 2428 3.2 22:39:20 55° N 22:39:20 55° N 22:43:49 10° NNE
GEOS 3 Rocket 4.3 22:40:54 49° ENE 22:41:29 52° NE 22:46:38 10° NNW
USA 267 3.5 22:37:51 10° ESE 22:44:19 66° NE 22:50:48 10° NW
Cosmos 2322 4.4 22:50:35 45° NNW 22:50:35 45° NNW 22:55:14 10° NNE
Cosmos 2360 Rocket 4.2 22:51:06 17° NW 22:51:16 17° NW 22:54:54 10° N
RESURS DK-1 4.3 23:01:49 27° N 23:01:49 27° N 23:03:48 10° NNE
Meteor 1-27 Rocket 4.1 23:01:19 55° ESE 23:01:34 55° E 23:07:05 10° NNE
MSX 3.8 22:56:06 10° NNE 23:01:38 80° NE 23:01:38 80° NE
Cosmos 2344 4.2 22:54:31 10° NW 23:03:11 78° NE 23:15:21 10° SE
Cosmos 2333 Rocket 4.2 23:03:47 16° NW 23:04:13 16° NW 23:07:41 10° N
Cosmos 2219 Rocket 3.7 23:05:42 24° NW 23:05:42 24° NW 23:09:57 10° N
Cosmos 1680 Rocket 4.3 23:06:35 44° ESE 23:06:38 44° ESE 23:11:39 10° NNE
Lacrosse 5 4.1 23:05:57 14° NW 23:08:03 18° NNW 23:11:33 10° NNE
GP-B 4.2 23:03:55 10° NNE 23:07:33 41° ENE 23:07:33 41° ENE
Cosmos 2278 Rocket 2.2 23:03:30 10° NNW 23:09:03 80° NE 23:09:03 80° NE
NOSS 2-2 (C) 4.3 23:07:04 10° NNW 23:11:37 66° NE 23:18:06 10° SE
Meteor 1-10 Rocket 4.3 23:14:26 73° WNW 23:14:26 73° WNW 23:20:11 10° N
CZ-2D R/B 2.1 23:10:06 10° NNE 23:15:10 77° NNW 23:15:10 77° NNW
Cosmos 1092 Rocket 4.3 23:18:00 48° SE 23:19:25 61° E 23:25:29 10° NNE
Cosmos 2026 Rocket 4.3 23:18:47 47° SSE 23:20:24 63° E 23:26:42 10° NNE
Meteor 1-11 Rocket 3.6 23:17:18 10° NNW 23:22:32 77° NW 23:22:32 77° NW
FENGYUN 3A 3.7 23:17:36 10° NNE 23:23:01 68° ESE 23:23:30 65° SE
ATLAS 2AS CENTAUR R/B 3.3 23:21:20 41° SSE 23:23:24 52° ESE 23:30:21 10° NE
SL-16 R/B 3.5 23:26:21 27° SE 23:28:07 33° ESE 23:33:07 10° NE
CZ-2C R/B 3.0 23:25:39 10° NNE 23:30:56 87° ESE 23:31:22 76° S
BREEZE-M DEB (TANK) 3.3 23:35:08 59° S 23:35:46 64° SSE 23:39:08 10° ENE
Cosmos 1340 Rocket 3.7 23:36:41 44° E 23:36:41 44° E 23:40:06 10° NNE
Cosmos 1805 Rocket 4.3 23:35:21 10° NNW 23:38:22 43° NNW 23:38:22 43° NNW
IDEFIX/ARIANE 42P 3.4 23:35:23 10° N 23:39:49 37° WNW 23:39:49 37° WNW
Resurs 1-4 Rocket 2.5 23:35:34 10° N 23:40:30 46° WNW 23:40:30 46° WNW
Sich 1 3.9 23:38:37 10° NNW 23:41:25 39° NNW 23:41:25 39° NNW
Cosmos 923 Rocket 4.0 23:43:30 64° W 23:43:42 65° WNW 23:48:58 10° NNE
NOSS 0 Rocket 4.4 23:43:20 41° W 23:44:13 43° WNW 23:50:05 10° NNE
Cosmos 1943 Rocket 2.1 23:40:57 10° NNW 23:46:40 88° WSW 23:50:00 26° SSE
ALOS 2.2 23:45:15 10° NNE 23:49:53 76° ESE 23:50:32 63° SSE
Cosmos 1627 Rocket 4.4 23:49:29 49° SSW 23:51:19 78° W 23:57:44 10° N
USA 215 4.5 23:47:47 10° NE 23:53:29 33° NNW 23:57:34 17° WNW
USA 308 2.9 23:54:28 61° NNE 23:54:28 61° NNE 23:57:49 10° NE
CZ-2C R/B 3.1 23:54:39 43° W 23:54:39 43° W 23:59:16 10° NNW
